sat.trackr.live / text

‹ back to catalog

KOSEN-1

NORAD 49402 · 2021-102H

PAYLOAD ACTIVE UNKNOWN

§ Identity

Operator
Country
JPN
Launch date
2021-11-09
Launch site
KSCUT
Launch vehicle
Mass (kg)
RCS (m²)

External: N2YO · Heavens-Above · Gunter

§ Orbital elements

Epoch: 2026-05-25T01:40:42.160224Z

Period
94.34 min
Inclination
97.3207°
Eccentricity
0.0011903
Mean motion
15.26464520 rev/d
Perigee alt
478.2 km
Apogee alt
494.6 km
Semi-major
6,864.5 km
B*
2.5441e-4
RAAN
187.6803°
Arg perigee
291.3952°
Mean anomaly
68.6016°
Rev number
25,049

§ Raw data

KOSEN-11 49402U 21102H   26145.06993241  .00006574  00000+0  25441-3 0  99972 49402  97.3207 187.6803 0011903 291.3952  68.6016 15.26464520250499

JSON: /api/v1/satellites/49402 · /tle

For live sub-satellite position, see the globe view (requires WebGL).

§ Visibility from observer

Set your observer location to see the next 7 days of passes ≥ 10°. The values pass through the URL so the page stays shareable.

No JS? Fill the form by hand. The geolocation button needs JavaScript.

§ Radio — SatNOGS DB

ModeDescriptionDownlinkUplink
AFSK Mode HF/U - Onboard SDR 435.525 MHz 21.125 MHz–21.150 MHz
AFSK Mode U - AFSK1k2 435.525 MHz
CW Mode U - CW Beacon 435.525 MHz
GMSK Mode U - GMSK9k6 435.525 MHz

4 transmitters · refreshed weekly from db.satnogs.org